Ankeny, IA

11:15 PM CDT on April 24, 2018 (GMT -0500)
Ankeny Regional

Weather History for KIKV - February, 2013

Change the Weather History Date:

Tuesday, February 19, 2013

  Actual Average (KDSM) Record (KDSM)
Temperature  
Mean Temperature 16 °F -  
Max Temperature 23 °F 37 °F 73 °F (2017)
Min Temperature 6 °F 20 °F -11 °F (1936)
Degree Days  
Heating Degree Days 50    
Moisture  
Dew Point 1 °F    
Average Humidity 53    
Maximum Humidity 68    
Minimum Humidity 36    
Precipitation  
Precipitation 0.00 in - - ()
Sea Level Pressure  
Sea Level Pressure 30.16 in    
Wind  
Wind Speed 18 mph (NW)    
Max Wind Speed 29 mph    
Max Gust Speed 38 mph    
Visibility 10 miles    
Events Snow    
Averages and records for this station are not official NWS values.
T = Trace of Precipitation, MM = Missing Value Source: NWS Daily Summary

Daily Weather History Graph

Daily Weather History Graph

Search for Another Location

Airport or City:

Astronomy

Feb. 19, 2013 Rise Set
Actual Time 7:03 AM CST 5:53 PM CST
Civil Twilight 6:35 AM CST 6:21 PM CST
Nautical Twilight 6:03 AM CST 6:53 PM CST
Astronomical Twilight 5:30 AM CST 7:25 PM CST
Moon 12:22 PM CST (2/19) 2:38 AM CST (2/19)
Length of Visible Light 11h 45m
Length of Day
10h 49m
Waxing Gibbous, 67% of the Moon is Illuminated
Feb 19
Waxing Gibbous
Feb 25
Full
Mar 4
Last Quarter
Mar 11
New
Mar 19
First Quarter

Hourly Weather History & Observations

Time (CST) Temp. Windchill Dew Point Humidity Pressure Visibility Wind Dir Wind Speed Gust Speed Precip Events Conditions
12:15 AM 17.6 °F 2.2 °F 6.8 °F 63% 29.94 in 10.0 mi WNW 17.3 mph 32.2 mph N/A   Overcast
12:35 AM 17.6 °F 1.3 °F 6.8 °F 63% 29.95 in 10.0 mi WNW 19.6 mph 28.8 mph N/A   Overcast
12:55 AM 15.8 °F -1.5 °F 6.8 °F 68% 29.95 in 10.0 mi WNW 20.7 mph 28.8 mph N/A   Overcast
1:15 AM 15.8 °F -1.1 °F 6.8 °F 68% 29.96 in 10.0 mi WNW 19.6 mph 34.5 mph N/A Snow Light Snow
1:35 AM 15.8 °F -0.6 °F 3.2 °F 58% 29.97 in 10.0 mi WNW 18.4 mph 34.5 mph N/A   Mostly Cloudy
1:55 AM 15.8 °F -1.1 °F 5.0 °F 62% 29.98 in 10.0 mi WNW 19.6 mph 26.5 mph N/A   Mostly Cloudy
2:15 AM 15.8 °F 0.3 °F 5.0 °F 62% 29.99 in 10.0 mi WNW 16.1 mph 29.9 mph N/A   Overcast
2:35 AM 14.0 °F -3.9 °F 3.2 °F 62% 29.99 in 10.0 mi NW 20.7 mph 33.4 mph N/A   Overcast
2:55 AM 14.0 °F -4.7 °F 3.2 °F 62% 29.99 in 10.0 mi NW 23.0 mph 36.8 mph N/A   Overcast
3:15 AM 14.0 °F -6.5 °F 3.2 °F 62% 30.00 in 10.0 mi WNW 28.8 mph 38.0 mph N/A   Overcast
3:35 AM 12.2 °F -6.3 °F 1.4 °F 62% 30.01 in 10.0 mi WNW 20.7 mph 32.2 mph N/A   Mostly Cloudy
3:55 AM 10.4 °F -9.1 °F 1.4 °F 67% 30.02 in 10.0 mi NW 21.9 mph 33.4 mph N/A   Scattered Clouds
4:15 AM 10.4 °F -7.7 °F 1.4 °F 67% 30.02 in 10.0 mi NW 18.4 mph 25.3 mph N/A   Clear
4:35 AM 10.4 °F -4.1 °F 1.4 °F 67% 30.03 in 10.0 mi NW 11.5 mph - N/A   Scattered Clouds
4:55 AM 12.2 °F -3.1 °F 3.2 °F 67% 30.04 in 10.0 mi NW 13.8 mph 21.9 mph N/A   Scattered Clouds
5:15 AM 12.2 °F -4.3 °F 3.2 °F 67% 30.05 in 10.0 mi NW 16.1 mph 20.7 mph N/A   Overcast
5:55 AM 12.2 °F -5.3 °F 3.2 °F 67% 30.07 in 10.0 mi WNW 18.4 mph 32.2 mph N/A   Overcast
6:15 AM 14.0 °F -3.9 °F 3.2 °F 62% 30.07 in 10.0 mi NW 20.7 mph 27.6 mph N/A   Overcast
6:35 AM 14.0 °F -5.5 °F 3.2 °F 62% 30.07 in 10.0 mi WNW 25.3 mph 34.5 mph N/A   Overcast
6:55 AM 14.0 °F -3.4 °F 3.2 °F 62% 30.08 in 10.0 mi WNW 19.6 mph 28.8 mph N/A   Overcast
7:15 AM 14.0 °F -2.5 °F 3.2 °F 62% 30.09 in 10.0 mi WNW 17.3 mph 28.8 mph N/A   Overcast
7:35 AM 14.0 °F -4.7 °F 1.4 °F 57% 30.10 in 10.0 mi WNW 23.0 mph 32.2 mph N/A   Mostly Cloudy
7:55 AM 14.0 °F -4.3 °F 3.2 °F 62% 30.11 in 10.0 mi WNW 21.9 mph 33.4 mph N/A   Scattered Clouds
8:15 AM 14.0 °F -4.7 °F 1.4 °F 57% 30.12 in 10.0 mi WNW 23.0 mph 32.2 mph N/A   Scattered Clouds
8:35 AM 14.0 °F -3.9 °F 1.4 °F 57% 30.13 in 10.0 mi NW 20.7 mph 34.5 mph N/A   Scattered Clouds
8:55 AM 14.0 °F -3.0 °F 1.4 °F 57% 30.13 in 10.0 mi WNW 18.4 mph 36.8 mph N/A   Scattered Clouds
9:15 AM 15.8 °F -2.3 °F 1.4 °F 53% 30.14 in 10.0 mi WNW 23.0 mph 32.2 mph N/A   Clear
9:35 AM 15.8 °F 0.9 °F 1.4 °F 53% 30.14 in 10.0 mi WNW 15.0 mph 25.3 mph N/A   Clear
9:55 AM 15.8 °F -1.5 °F 1.4 °F 53% 30.15 in 10.0 mi NW 20.7 mph 33.4 mph N/A   Clear
10:15 AM 17.6 °F 0.1 °F 1.4 °F 49% 30.16 in 10.0 mi NW 23.0 mph 34.5 mph N/A   Clear
10:35 AM 17.6 °F 1.3 °F 1.4 °F 49% 30.16 in 10.0 mi WNW 19.6 mph 29.9 mph N/A   Scattered Clouds
10:55 AM 19.4 °F 3.6 °F 1.4 °F 46% 30.17 in 10.0 mi WNW 19.6 mph 27.6 mph N/A   Scattered Clouds
11:15 AM 19.4 °F 3.6 °F 1.4 °F 46% 30.17 in 10.0 mi NW 19.6 mph 29.9 mph N/A   Scattered Clouds
11:35 AM 19.4 °F 2.1 °F 1.4 °F 46% 30.18 in 10.0 mi WNW 24.2 mph 29.9 mph N/A   Scattered Clouds
11:55 AM 21.2 °F 7.8 °F 1.4 °F 42% 30.18 in 10.0 mi NW 15.0 mph 29.9 mph N/A   Scattered Clouds
12:15 PM 21.2 °F 4.9 °F 1.4 °F 42% 30.18 in 10.0 mi WNW 23.0 mph 33.4 mph N/A   Scattered Clouds
12:35 PM 23.0 °F 7.6 °F -0.4 °F 36% 30.19 in 10.0 mi WNW 21.9 mph 28.8 mph N/A   Clear
12:55 PM 21.2 °F 5.2 °F -0.4 °F 39% 30.19 in 10.0 mi WNW 21.9 mph 32.2 mph N/A   Clear
1:15 PM 21.2 °F 5.6 °F -0.4 °F 39% 30.19 in 10.0 mi WNW 20.7 mph 33.4 mph N/A   Clear
1:35 PM 21.2 °F 5.2 °F -0.4 °F 39% 30.19 in 10.0 mi NW 21.9 mph 29.9 mph N/A   Clear
1:55 PM 23.0 °F 9.6 °F -0.4 °F 36% 30.19 in 10.0 mi NW 16.1 mph 29.9 mph N/A   Clear
2:15 PM 21.2 °F 4.9 °F -0.4 °F 39% 30.19 in 10.0 mi WNW 23.0 mph 28.8 mph N/A   Clear
2:35 PM 23.0 °F 8.7 °F -0.4 °F 36% 30.20 in 10.0 mi NW 18.4 mph 26.5 mph N/A   Clear
2:55 PM 23.0 °F 6.6 °F -0.4 °F 36% 30.21 in 10.0 mi WNW 25.3 mph 28.8 mph N/A   Clear
3:15 PM 23.0 °F 8.7 °F -0.4 °F 36% 30.21 in 10.0 mi NW 18.4 mph 25.3 mph N/A   Clear
3:35 PM 23.0 °F 8.0 °F -0.4 °F 36% 30.21 in 10.0 mi WNW 20.7 mph 29.9 mph N/A   Clear
3:55 PM 23.0 °F 8.7 °F -0.4 °F 36% 30.22 in 10.0 mi NW 18.4 mph 29.9 mph N/A   Clear
4:15 PM 23.0 °F 9.2 °F -0.4 °F 36% 30.22 in 10.0 mi WNW 17.3 mph 26.5 mph N/A   Clear
4:35 PM 23.0 °F 9.6 °F -0.4 °F 36% 30.23 in 10.0 mi NW 16.1 mph 25.3 mph N/A   Clear
4:55 PM 21.2 °F 6.4 °F -0.4 °F 39% 30.23 in 10.0 mi WNW 18.4 mph 29.9 mph N/A   Clear
5:15 PM 21.2 °F 6.0 °F -0.4 °F 39% 30.24 in 10.0 mi WNW 19.6 mph 26.5 mph N/A   Clear
6:35 PM 17.6 °F 5.7 °F 1.4 °F 49% 30.25 in 10.0 mi NW 10.4 mph - N/A   Clear
6:55 PM 17.6 °F 6.4 °F 1.4 °F 49% 30.25 in 10.0 mi NW 9.2 mph - N/A   Clear
7:15 PM 17.6 °F 6.4 °F 1.4 °F 49% 30.25 in 10.0 mi NW 9.2 mph - N/A   Clear
7:35 PM 17.6 °F 5.7 °F 1.4 °F 49% 30.26 in 10.0 mi NW 10.4 mph - N/A   Clear
7:55 PM 17.6 °F 5.7 °F 1.4 °F 49% 30.26 in 10.0 mi WNW 10.4 mph - N/A   Clear
8:15 PM 15.8 °F 2.7 °F 1.4 °F 53% 30.27 in 10.0 mi NW 11.5 mph - N/A   Clear
8:35 PM 15.8 °F 6.1 °F 1.4 °F 53% 30.28 in 10.0 mi NW 6.9 mph - N/A   Clear
8:55 PM 14.0 °F 0.5 °F -0.4 °F 53% 30.28 in 10.0 mi NW 11.5 mph - N/A   Clear
9:15 PM 14.0 °F 0.5 °F -0.4 °F 53% 30.29 in 10.0 mi NW 11.5 mph 18.4 mph N/A   Clear
9:35 PM 12.2 °F -2.5 °F -0.4 °F 57% 30.30 in 10.0 mi NW 12.7 mph - N/A   Clear
9:55 PM 12.2 °F 0.7 °F -0.4 °F 57% 30.31 in 10.0 mi NW 8.1 mph - N/A   Clear
10:15 PM 12.2 °F -3.7 °F -0.4 °F 57% 30.32 in 10.0 mi NNW 15.0 mph 20.7 mph N/A   Clear
10:35 PM 10.4 °F -5.4 °F -0.4 °F 62% 30.33 in 10.0 mi NNW 13.8 mph - N/A   Clear
10:55 PM 10.4 °F -4.1 °F -0.4 °F 62% 30.34 in 10.0 mi NNW 11.5 mph - N/A   Clear
11:15 PM 8.6 °F -8.3 °F -2.2 °F 62% 30.35 in 10.0 mi NNW 15.0 mph 18.4 mph N/A   Clear
11:35 PM 8.6 °F -7.0 °F -2.2 °F 62% 30.36 in 10.0 mi North 12.7 mph - N/A   Clear
11:55 PM 6.8 °F -10.0 °F -4.0 °F 61% 30.37 in 10.0 mi NNW 13.8 mph 19.6 mph N/A   Clear